Tracking 31027 objects as of 19-Jul-2025
HD Live streaming from Space Station
objects crossing your sky now

CARTOSAT 2D

Track CARTOSAT 2D now!
10-day predictions


NORAD ID: 41948
Int'l Code: 2017-008A
Perigee: 512.5 km
Apogee: 518.3 km
Inclination: 97.5 °
Period: 94.8 minutes
Semi major axis: 6886 km
RCS: Unknown
Launch date: February 15, 2017
Source: India (IND)
Launch site: SRIHARIKOTA (SRI)
Your satellite tracking list
OBJECT A
Track 1 satellite(s)




NASA's NSSDC Master Catalog

Two Line Element Set (TLE):
1 41948U 17008A   25199.88780000  .00003663  00000-0  17729-3 0  9996
2 41948  97.4594 259.4092 0004189 336.1265  23.9775 15.19201973466978
Source of the keplerian elements: AFSPC